STARLINK-35981

Last updated on Wed Dec 31 2025 00:02:06 GMT+0000 (Coordinated Universal Time)

1 66598U 25270L 25364.60114162 .00084673 00000+0 20094-2 0 9995 2 66598 42.9981 89.4757 0002227 259.9520 100.1085 15.40735950 6958
UTC large
Height (km)
Speed (km/s)
/
Latitude / Longitude
Inclination (degrees)
Orbital Period (minutes)
Azimuth
Elevation
Range (km)
Doppler Factor

Next 0 passes for location: London (51.5072 / 0.1276)

Sorry there are no passes over London.